Flag for Paraguay Weather past 2 weeks in Asuncion, Paraguay

Now
72 °F

Passing clouds.


Feels Like: 71 °F
Forecast: 68 / 86 °F
Wind: 3 mph from Southeast

Location: Asuncion / Aeropuerto

Current Time: Oct 1, 2014 at 9:11:08 PM

Latest Report: Oct 1, 2014 at 8:00 PM


Visibility: N/A

Pressure: 30.04 "Hg

Humidity: 83%

Dew point: 66 °F

Location of AsuncionLocation

Historic Weather in Asuncion — Graph

°F

Asuncion temperature yesterday

Maximum temperature yesterday: 95 °F (at 2:00 PM)
Minimum temperature yesterday: 75 °F (at 3:00 AM)
Average temperature yesterday: 82 °F

Past Weeks' High & Low Weather Summary

 TemperatureHumidityPressure
High95 °F (Sep 30, 2:00 PM)100% (Sep 18, 7:30 AM)30.15 "Hg (Sep 18, 7:30 AM)
Low39 °F (Sep 24, 1:20 AM)30% (Sep 21, 3:00 PM)29.59 "Hg (Sep 30, 4:00 PM)
Average74 °F76%29.85 "Hg
* Reported Sep 16 7:00 PM — Oct 1 7:00 PM, Asuncion, Weather by CustomWeather, © 2014

Note: Actual official high and low records may vary slightly from our data, if they occured in-between our weather recording intervals... More about our weather records

Advertising

Asuncion weather history for previous 24 hours

 ConditionsComfort  
Time TempWeatherWind HumidityBarometerVisibility
7:00 PM
Oct 1
73 °FPartly cloudy.6 mph74%30.01 "HgN/A
6:00 PM75 °FPassing clouds.9 mph69%30.01 "HgN/A
5:00 PM75 °FPassing clouds.13 mph74%30.01 "HgN/A
4:00 PM79 °FBroken clouds.14 mph70%29.98 "HgN/A
3:00 PM79 °FPartly sunny.12 mph70%29.98 "HgN/A
2:00 PM79 °FPartly sunny.12 mph70%30.01 "HgN/A
1:00 PM79 °FPartly sunny.6 mph70%30.01 "HgN/A
12:00 PM77 °FPartly sunny.12 mph74%30.04 "HgN/A
11:00 AM75 °FPartly sunny.15 mph74%30.04 "HgN/A
10:00 AM75 °FPartly sunny.17 mph78%30.01 "HgN/A
9:30 AM73 °FPartly sunny.18 mph83%30.04 "HgN/A
9:00 AM73 °FPartly sunny.12 mph83%30.04 "HgN/A
8:30 AM72 °FPartly sunny.13 mph83%30.04 "HgN/A
8:00 AM70 °FLow clouds.13 mph88%30.04 "HgN/A
7:30 AM70 °FLow clouds.13 mph88%30.04 "HgN/A
7:00 AM70 °FLow clouds.15 mph88%30.01 "HgN/A
6:00 AM68 °FMostly cloudy.14 mph94%29.95 "HgN/A
5:00 AM70 °FDrizzle. Low clouds.14 mph94%29.92 "Hg4 mi
4:00 AM70 °FDrizzle. Low clouds.8 mph100%29.89 "Hg4 mi
3:00 AM72 °FDrizzle. Low clouds.8 mph94%29.89 "HgN/A
2:00 AM73 °FOvercast.6 mph89%29.86 "HgN/A
12:00 AM75 °FOvercast.7 mph89%29.86 "HgN/A
11:00 PM
Sep 30
75 °FPassing clouds.12 mph89%29.86 "HgN/A
10:00 PM75 °FThunderstorms. Passing clouds.12 mph89%29.83 "HgN/A
9:00 PM77 °FThunderstorms. Mostly cloudy.14 mph89%29.83 "HgN/A
Weather by CustomWeather, © 2014

See weather overviewHow to use our weather pages